www.pogodaiklimat.ru

Погода и климат >> Архив погоды >> Мексика >> Choix


ПОГОДА в Choix

  • Прогноз погоды в Choix
  • Монитор погоды в Choix
  • Климат города

АРХИВ ПОГОДЫ в Choix

Время (UTC), дата Ветер
(напр.,м/с)
 
Видим.   Явления Облачность Т
(С)
Тd
(С)
f
(%)
Тe
(С)
Тes
(С)
Комфортность P
(гПа)
Po
(гПа)
Тmin
(С)
Tmax
(С)
R
(мм)
R24
(мм)
S
(см)
21 20.06 З 1 30 км ясно +41.2 +25.4 41 +54 +76 опасность
перегрева
1004.6 978.5
00 21.06 З 3 30 км 3/3 600 м
[Sc diur, vesp]
+41.6 +24.3 38 +53 +55 опасность
перегрева
1002.7 976.9 +26.8 +42.6
03 21.06 З 1 2000 м 1/1 750 м
[Sc diur, vesp]
+33.3 +22.0 52 +42 +42 опасность
перегрева
1004.3 978.6
06 21.06 В 1 2000 м 5/5 600 м
[Frnb]
+30.7 +21.1 57 +38 +38 очень
душно
1005.0 979.2 +26.8 +42.6
09 21.06 штиль 0 2000 м ясно +28.2 +20.9 65 +35 +35 очень
душно
1004.8 978.8
12 21.06 штиль 0 2000 м ясно +26.5 +20.5 70 +33 +33 очень
душно
1006.3 979.9 +26.3 +42.6
15 21.06 З 1 30 км ясно +31.7 +22.2 57 +41 +48 опасность
перегрева
1007.3 980.8
18 21.06 СВ 2 30 км ясно +37.4 +23.1 44 +47 +68 опасность
перегрева
1006.4 980.0 +26.3 +37.4
21 21.06 З 5 30 км ясно +38.8 +24.2 44 +50 +60 опасность
перегрева
1003.9 977.8
00 22.06 З 5 30 км ясно +40.1 +24.0 40 +51 +53 опасность
перегрева
1002.3 976.5 +26.3 +41.4
03 22.06 ЮЗ 3 2000 м ясно +32.7 +22.0 53 +41 +41 опасность
перегрева
1004.9 979.1
06 22.06 СВ 3 2000 м ясно +28.7 +21.3 64 +36 +36 очень
душно
1007.2 981.3 +26.3 +41.4
09 22.06 СВ 1 2000 м ясно +27.2 +20.4 66 +34 +34 очень
душно
1007.3 981.1
12 22.06 СВ 1 2000 м ясно +25.4 +19.3 69 +31 +31 очень
душно
1007.5 981.0 +25.2 +41.4
15 22.06 В 2 30 км ясно +30.6 +22.0 60 +39 +46 очень
душно
1008.8 982.1
18 22.06 В 2 30 км ясно +36.6 +23.7 48 +48 +68 опасность
перегрева
1008.3 981.7 +24.8 +36.9
00 23.06 штиль 0 30 км ясно +39.9 +27.4 50 +58 +64 опасность
перегрева
1003.9 978.0 +24.8 +40.8
03 23.06 штиль 0 2000 м ясно +33.8 +28.7 75 +57 +57 опасность
перегрева
1004.9 979.1
06 23.06 штиль 0 2000 м ясно +29.7 +25.9 80 +44 +44 опасность
перегрева
1007.5 981.6 +24.8 +40.8
12 23.06 штиль 0 2000 м ясно +26.1 +22.4 80 +34 +34 очень
душно
1009.0 982.7 +22.0 +40.8
18 23.06 С 1 30 км ясно +37.2 +25.6 52 +52 +76 опасность
перегрева
1008.4 981.9 +24.9 +39.6
21 23.06 С 1 30 км ясно +39.8 +27.7 51 +59 +80 опасность
перегрева
1005.8 979.6
00 24.06 З 1 30 км 5/5 600 м
[Sc diur, vesp]
+39.0 +26.8 50 +55 +58 опасность
перегрева
1003.3 977.4 +24.9 +41.8
03 24.06 штиль 0 2000 м 8/8 750 м
[Sc diur, vesp]
+35.1 +25.8 59 +51 +51 опасность
перегрева
1004.2 978.5
06 24.06 штиль 0 2000 м 8/8 750 м
[Sc diur, vesp]
+31.4 +24.4 66 +44 +44 опасность
перегрева
1004.9 979.1 +24.9 +41.8
09 24.06 штиль 0 2000 м 6/6 <50 м
[Sc diur, vesp]
+29.3 +23.6 71 +40 +40 очень
душно
1005.6 979.6
12 24.06 штиль 0 2000 м 8/8 750 м
[Sc]
+27.6 +22.6 74 +36 +36 очень
душно
1006.3 980.0 +27.4 +41.8
15 24.06 штиль 0 30 км 5/5 750 м
[Sc]
+29.8 +23.8 70 +41 +45 опасность
перегрева
1008.4 981.9
18 24.06 штиль 0 30 км 3/3 750 м
[Sc diur, vesp]
+36.7 +27.0 58 +55 +74 опасность
перегрева
1007.0 980.6 +26.6 +36.9
21 24.06 штиль 0 30 км 1/1 750 м
[Sc diur, vesp]
+40.0 +28.8 54 +62 +85 опасность
перегрева
1004.4 978.2
00 25.06 ЮЗ 1 30 км 4/4 600 м
[Sc diur, vesp]
+40.3 +29.0 53 +62 +65 опасность
перегрева
1002.2 976.3 +26.6 +42.4
03 25.06 З 1 2000 м 6/6 750 м
[Sc]
+34.1 +25.7 62 +49 +49 опасность
перегрева
1005.1 979.4
06 25.06 штиль 0 2000 м 6/6 750 м
[Sc]
+30.7 +24.4 69 +43 +43 опасность
перегрева
1008.0 982.1 +26.6 +42.4
09 25.06 штиль 0 2000 м 4/4 750 м
[Sc diur, vesp]
+28.4 +23.1 73 +38 +38 очень
душно
1007.9 981.8
12 25.06 штиль 0 2000 м 3/3 750 м
[Sc diur, vesp]
+27.4 +22.6 75 +36 +36 очень
душно
1009.1 982.7 +27.2 +42.4
15 25.06 штиль 0 30 км 4/4 750 м
[Sc diur, vesp]
+32.2 +24.1 62 +44 +49 опасность
перегрева
1011.4 984.8
18 25.06 штиль 0 30 км 4/4 750 м
[Sc diur, vesp]
+36.2 +26.6 58 +53 +70 опасность
перегрева
1010.5 984.0 +26.6 +36.4
21 25.06 СВ 2 30 км 8/0
[Ci ing]
+39.8 +28.5 53 +61 +76 опасность
перегрева
1008.9 982.6
00 26.06 З 1 30 км 8/0
[Ci ing]
+40.8 +27.9 49 +60 +64 опасность
перегрева
1006.6 980.6 +26.6 +41.0
03 26.06 З 2 2000 м ясно +34.0 +23.0 53 +44 +44 опасность
перегрева
1008.3 982.4
06 26.06 штиль 0 2000 м ясно +31.0 +21.9 58 +39 +39 очень
душно
1010.4 984.4 +26.6 +41.0
09 26.06 штиль 0 2000 м ясно +29.4 +22.1 65 +38 +38 очень
душно
1009.9 983.8
12 26.06 штиль 0 2000 м ясно +27.2 +21.3 70 +34 +34 очень
душно
1010.7 984.3 +2.7 +41.0
15 26.06 С 1 30 км ясно +30.7 +24.2 68 +43 +50 опасность
перегрева
1011.4 984.8
18 26.06 З 1 30 км ясно +36.1 +27.4 61 +55 +79 опасность
перегрева
1010.7 984.2 +26.3 +36.8
21 26.06 З 1 30 км ясно +38.4 +28.3 57 +59 +81 опасность
перегрева
1008.9 982.6
00 27.06 З 2 30 км 9/3 300 м
[Cu med, cong Ci ing]
+38.9 +28.0 54 +58 +61 опасность
перегрева
1006.7 980.7 +26.3 +39.2
06 27.06 ЮЗ 1 2000 м слабая морось 10/10 300 м
[Frnb]
+22.8 +21.1 90 +30 +30 очень
душно
1014.0 987.6 71
09 27.06 штиль 0 2000 м в посл. час морось 10/0
[Ci ing]
+23.9 +21.1 84 +30 +30 очень
душно
1009.9 983.3 1
12 27.06 штиль 0 2000 м в посл. час морось ясно +23.7 +21.0 85 +30 +30 очень
душно
1011.0 984.0 +23.5 +39.2 1
15 27.06 штиль 0 30 км ясно +27.3 +23.0 77 +36 +45 очень
душно
1012.5 985.4
18 27.06 З 2 30 км ясно +33.9 +26.2 64 +50 +70 опасность
перегрева
1011.5 984.6 +23.3 +34.2

 

Местоположение метеостанции Choix (Мексика): широта 26.73 долгота -108.20 высота над уровнем моря 238 м.

В архиве по умолчанию представлена погода в Choix за последнюю неделю. Архивные данные за месяц целиком и за предыдущие месяцы, начиная с января 2011 года, Вы можете получить, выбрав интересующий диапазон дат из раскрывающегося списка и нажав кнопку "Ввод!".

Внимание! Время в таблицах - всемирное. Для получения местного времени необходимо прибавить поправку, которая в Choix равна -6 ч.

Смотрите также архив погоды в соседних городах и на ближайших метеорологических станциях:

Погода в Ciudad Obregon (Мексика) (177 км)
Погода в Culiacan (Мексика) (229 км)
Погода в Temosachic (Мексика) (250 км)
Погода в Hidalgo del Parral (Мексика) (259 км)
Погода в Empalme (Мексика) (282 км)
Погода в Tepehuanes (Мексика) (292 км)
Погода в Guaymas Upper Air Site (Мексика) (296 км)
Погода в Chihuahua (Мексика) (303 км)
Погода в Chihuahua University (Мексика) (303 км)
Погода в Loreto (Мексика) (319 км)

Пояснения к столбцам:

Ветер - указаны скорость ветра в м/с - средняя за 10 мин, порывы в срок и между сроками (в фигурных скобках) и направление, откуда дует ветер: С - северный, СВ - северо-восточный, В - восточный, ЮВ - юго-восточный, Ю - южный, ЮЗ - юго-западный, З - западный, СЗ - северо-западный.
Видимость - горизонтальная дальность видимости в метрах или километрах. При видимости от 1 до 10 км при отсутствии осадков обычно наблюдается дымка, при ухудшении видимости до 1 км и менее - туман. В сухую погоду видимость может ухудшаться дымом, пылью или мглою.
Явления - указаны атмосферные явления, наблюдавшиеся в срок или в последний час перед сроком; фигурными скобками обозначены явления, наблюдавшиеся между сроками (за 1-3 часа до срока); квадратными скобками обозначены град или гололедные отложения с указанием их диаметра в мм.
Облачность - указаны через наклонную черту общая и нижняя облачность в баллах и высота нижней границы облаков в метрах; квадратными скобками обозначены формы облаков: Ci - перистые, Cs - перисто-слоистые, Cc - перисто-кучевые, Ac - высококучевые, As - высокослоистые, Sc - слоисто-кучевые, Ns - слоисто-дождевые, Cu - кучевые, Cb - кучево-дождевые. Подробнее классификацию облаков см. в Атласе облаков (PDF).
T - Температура воздуха - температура, измеренная на высоте 2 м над землей.
Td - Температура точки росы - температура, при понижении до которой содержащийся в воздухе водяной пар достигнет насыщения.
f - Относительная влажность воздуха - влажноcть воздуха, измеренная на высоте 2 м над землей.
Te - Эффективная температура - температура, которую ощущает одетый по сезону человек в тени. Характеристика душности погоды. При расчете учитывается влияние влажности воздуха и скорости ветра на теплоощущения человека.
Tes - Эффективная температура на солнце - температура, которую ощущает человек, с поправкой на солнечный нагрев. Характеристика знойности погоды. Зависит от высоты солнца над горизонтом, облачности и скорости ветра. Ночью, в пасмурную погоду, а также при ветре 12 м/с и более поправка равна нулю.
P - Атмосферное давление - приведенное к уровню моря атмосферное давление.
Po - Атмосферное давление - измеренное на уровне метеостанции атмосферное давление.
Tmin - Минимальная температура - минимум температуры воздуха на высоте 2 м над землей.
Tmax - Максимальная температура - максимум температуры воздуха на высоте 2 м над землей.
R - Количество осадков - Количество выпавших осадков за период времени, мм. При наведении курсора мыши на число - период времени, за который выпало указанное количество осадков.
R24 - Количество осадков - Количество выпавших осадков за 24 часа, мм.
S - Снежный покров - Высота снежного покрова, см. При наведении курсора мыши на число - состояние снежного покрова и степень покрытия местности в баллах.